owner,sensor,date,latitude,longitude,vertical_datum,wind_speed,wind_to_direction,wind_speed_of_gust,qcFlag 
TCOON,ioos:station:TCOON:057:1,2008-09-01T00:00:00Z,28.4460,-96.3961,0.0,3.3,120.0,3.7,'11111222,11111222,11111222' 
TCOON,ioos:station:TCOON:057:1,2008-09-01T01:00:00Z,28.4460,-96.3961,0.0,2.6,120.0,2.9,'11111222,11111222,11111222' 
TCOON,ioos:station:TCOON:057:1,2008-09-01T03:00:00Z,28.4460,-96.3961,0.0,1.9,112.0,2.1,'11111222,11111222,11111222' 
TCOON,ioos:station:TCOON:057:1,2008-09-01T04:00:00Z,28.4460,-96.3961,0.0,1.2,83.0,1.4,'11111222,11111222,11111222' 
TCOON,ioos:station:TCOON:057:1,2008-09-01T05:00:00Z,28.4460,-96.3961,0.0,0.0,226.0,0.3,'11111222,11111222,11111222' 
TCOON,ioos:station:TCOON:057:1,2008-09-01T06:00:00Z,28.4460,-96.3961,0.0,0.1,270.0,0.3,'11111222,11111222,11111222' 
TCOON,ioos:station:TCOON:057:1,2008-09-01T07:00:00Z,28.4460,-96.3961,0.0,3.0,279.0,3.5,'11111222,11111222,11111222' 
TCOON,ioos:station:TCOON:057:1,2008-09-01T08:00:00Z,28.4460,-96.3961,0.0,3.0,286.0,3.4,'11111222,11111222,11111222' 
TCOON,ioos:station:TCOON:057:1,2008-09-01T09:00:00Z,28.4460,-96.3961,0.0,3.5,301.0,3.9,'11111222,11111222,11111222' 
TCOON,ioos:station:TCOON:057:1,2008-09-01T10:00:00Z,28.4460,-96.3961,0.0,4.8,295.0,6.0,'11111222,11111222,11111222' 
TCOON,ioos:station:TCOON:057:1,2008-09-01T11:00:00Z,28.4460,-96.3961,0.0,4.6,304.0,5.3,'11111222,11111222,11111222' 
TCOON,ioos:station:TCOON:057:1,2008-09-01T12:00:00Z,28.4460,-96.3961,0.0,6.8,338.0,8.1,'11111222,11111222,11111222' 
TCOON,ioos:station:TCOON:057:1,2008-09-01T13:00:00Z,28.4460,-96.3961,0.0,7.9,326.0,9.1,'11111222,11111222,11111222' 
TCOON,ioos:station:TCOON:057:1,2008-09-01T14:00:00Z,28.4460,-96.3961,0.0,8.2,331.0,9.1,'11111222,11111222,11111222' 
TCOON,ioos:station:TCOON:057:1,2008-09-01T15:00:00Z,28.4460,-96.3961,0.0,6.2,335.0,6.9,'11111222,11111222,11111222' 
TCOON,ioos:station:TCOON:057:1,2008-09-01T16:00:00Z,28.4460,-96.3961,0.0,5.5,326.0,6.0,'11111222,11111222,11111222' 
TCOON,ioos:station:TCOON:057:1,2008-09-01T17:00:00Z,28.4460,-96.3961,0.0,5.8,318.0,6.6,'11111222,11111222,11111222' 
TCOON,ioos:station:TCOON:057:1,2008-09-01T18:00:00Z,28.4460,-96.3961,0.0,5.2,317.0,5.8,'11111222,11111222,11111222' 
TCOON,ioos:station:TCOON:057:1,2008-09-01T19:00:00Z,28.4460,-96.3961,0.0,5.8,315.0,6.5,'11111222,11111222,11111222' 
TCOON,ioos:station:TCOON:057:1,2008-09-01T20:00:00Z,28.4460,-96.3961,0.0,6.6,316.0,7.1,'11111222,11111222,11111222' 
TCOON,ioos:station:TCOON:057:1,2008-09-01T21:00:00Z,28.4460,-96.3961,0.0,5.1,327.0,5.8,'11111222,11111222,11111222' 
TCOON,ioos:station:TCOON:057:1,2008-09-01T22:00:00Z,28.4460,-96.3961,0.0,5.6,322.0,6.2,'11111222,11111222,11111222' 
TCOON,ioos:station:TCOON:057:1,2008-09-01T23:00:00Z,28.4460,-96.3961,0.0,5.3,315.0,6.0,'11111222,11111222,11111222' 
TCOON,ioos:station:TCOON:057:1,2008-09-02T00:00:00Z,28.4460,-96.3961,0.0,3.1,349.0,3.6,'11111222,11111222,11111222' 
TCOON,ioos:station:TCOON:057:1,2008-09-02T01:00:00Z,28.4460,-96.3961,0.0,1.6,16.0,1.8,'11111222,11111222,11111222' 
TCOON,ioos:station:TCOON:057:1,2008-09-02T02:00:00Z,28.4460,-96.3961,0.0,0.6,348.0,1.0,'11111222,11111222,11111222' 
TCOON,ioos:station:TCOON:057:1,2008-09-02T03:00:00Z,28.4460,-96.3961,0.0,0.7,312.0,1.1,'11111222,11111222,11111222' 
TCOON,ioos:station:TCOON:057:1,2008-09-02T04:00:00Z,28.4460,-96.3961,0.0,0.9,243.0,1.1,'11111222,11111222,11111222' 
TCOON,ioos:station:TCOON:057:1,2008-09-02T05:00:00Z,28.4460,-96.3961,0.0,1.4,281.0,1.7,'11111222,11111222,11111222' 
TCOON,ioos:station:TCOON:057:1,2008-09-02T06:00:00Z,28.4460,-96.3961,0.0,2.0,262.0,2.3,'11111222,11111222,11111222' 
TCOON,ioos:station:TCOON:057:1,2008-09-02T07:00:00Z,28.4460,-96.3961,0.0,1.6,236.0,1.8,'11111222,11111222,11111222' 
TCOON,ioos:station:TCOON:057:1,2008-09-02T08:00:00Z,28.4460,-96.3961,0.0,1.2,242.0,1.4,'11111222,11111222,11111222' 
TCOON,ioos:station:TCOON:057:1,2008-09-02T09:00:00Z,28.4460,-96.3961,0.0,3.0,265.0,3.4,'11111222,11111222,11111222' 
TCOON,ioos:station:TCOON:057:1,2008-09-02T10:00:00Z,28.4460,-96.3961,0.0,2.6,278.0,3.0,'11111222,11111222,11111222' 
TCOON,ioos:station:TCOON:057:1,2008-09-02T11:00:00Z,28.4460,-96.3961,0.0,3.0,300.0,3.6,'11111222,11111222,11111222' 
TCOON,ioos:station:TCOON:057:1,2008-09-02T12:00:00Z,28.4460,-96.3961,0.0,3.2,290.0,3.6,'11111222,11111222,11111222' 
TCOON,ioos:station:TCOON:057:1,2008-09-02T13:00:00Z,28.4460,-96.3961,0.0,3.4,298.0,3.8,'11111222,11111222,11111222' 
TCOON,ioos:station:TCOON:057:1,2008-09-02T14:00:00Z,28.4460,-96.3961,0.0,4.5,320.0,5.3,'11111222,11111222,11111222' 
TCOON,ioos:station:TCOON:057:1,2008-09-02T15:00:00Z,28.4460,-96.3961,0.0,3.7,327.0,4.1,'11111222,11111222,11111222' 
TCOON,ioos:station:TCOON:057:1,2008-09-02T16:00:00Z,28.4460,-96.3961,0.0,3.0,343.0,3.5,'11111222,11111222,11111222' 
TCOON,ioos:station:TCOON:057:1,2008-09-02T17:00:00Z,28.4460,-96.3961,0.0,1.6,73.0,1.8,'11111222,11111222,11111222' 
TCOON,ioos:station:TCOON:057:1,2008-09-02T18:00:00Z,28.4460,-96.3961,0.0,3.3,84.0,3.8,'11111222,11111222,11111222' 
TCOON,ioos:station:TCOON:057:1,2008-09-02T19:00:00Z,28.4460,-96.3961,0.0,4.8,235.0,6.8,'11111222,11111222,11111222' 
TCOON,ioos:station:TCOON:057:1,2008-09-02T20:00:00Z,28.4460,-96.3961,0.0,6.9,205.0,8.6,'11111222,11111222,11111222' 
TCOON,ioos:station:TCOON:057:1,2008-09-02T21:00:00Z,28.4460,-96.3961,0.0,8.0,174.0,9.1,'11111222,11111222,11111222' 
TCOON,ioos:station:TCOON:057:1,2008-09-02T22:00:00Z,28.4460,-96.3961,0.0,7.7,176.0,8.6,'11111222,11111222,11111222' 
TCOON,ioos:station:TCOON:057:1,2008-09-02T23:00:00Z,28.4460,-96.3961,0.0,7.7,182.0,8.6,'11111222,11111222,11111222' 
TCOON,ioos:station:TCOON:057:1,2008-09-03T00:00:00Z,28.4460,-96.3961,0.0,7.7,194.0,9.2,'11111222,11111222,11111222' 
TCOON,ioos:station:TCOON:057:1,2008-09-03T01:00:00Z,28.4460,-96.3961,0.0,6.6,197.0,7.7,'11111222,11111222,11111222' 
TCOON,ioos:station:TCOON:057:1,2008-09-03T02:00:00Z,28.4460,-96.3961,0.0,5.8,200.0,7.2,'11111222,11111222,11111222' 
TCOON,ioos:station:TCOON:057:1,2008-09-03T03:00:00Z,28.4460,-96.3961,0.0,5.6,206.0,7.4,'11111222,11111222,11111222' 
TCOON,ioos:station:TCOON:057:1,2008-09-03T04:00:00Z,28.4460,-96.3961,0.0,5.9,204.0,7.7,'11111222,11111222,11111222' 
TCOON,ioos:station:TCOON:057:1,2008-09-03T05:00:00Z,28.4460,-96.3961,0.0,6.2,203.0,7.7,'11111222,11111222,11111222' 
TCOON,ioos:station:TCOON:057:1,2008-09-03T06:00:00Z,28.4460,-96.3961,0.0,6.1,209.0,8.2,'11111222,11111222,11111222' 
TCOON,ioos:station:TCOON:057:1,2008-09-03T07:00:00Z,28.4460,-96.3961,0.0,8.3,216.0,10.4,'11111222,11111222,11111222' 
TCOON,ioos:station:TCOON:057:1,2008-09-03T08:00:00Z,28.4460,-96.3961,0.0,9.0,218.0,10.9,'11111222,11111222,11111222' 
TCOON,ioos:station:TCOON:057:1,2008-09-03T09:00:00Z,28.4460,-96.3961,0.0,8.2,222.0,11.0,'11111222,11111222,11111222' 
TCOON,ioos:station:TCOON:057:1,2008-09-03T10:00:00Z,28.4460,-96.3961,0.0,9.6,233.0,11.3,'11111222,11111222,11111222' 
TCOON,ioos:station:TCOON:057:1,2008-09-03T11:00:00Z,28.4460,-96.3961,0.0,4.9,252.0,5.8,'11111222,11111222,11111222' 
TCOON,ioos:station:TCOON:057:1,2008-09-03T12:00:00Z,28.4460,-96.3961,0.0,4.4,277.0,5.6,'11111222,11111222,11111222' 
TCOON,ioos:station:TCOON:057:1,2008-09-03T13:00:00Z,28.4460,-96.3961,0.0,5.0,256.0,5.7,'11111222,11111222,11111222' 
TCOON,ioos:station:TCOON:057:1,2008-09-03T14:00:00Z,28.4460,-96.3961,0.0,6.1,273.0,7.7,'11111222,11111222,11111222' 
TCOON,ioos:station:TCOON:057:1,2008-09-03T15:00:00Z,28.4460,-96.3961,0.0,3.8,276.0,4.8,'11111222,11111222,11111222' 
TCOON,ioos:station:TCOON:057:1,2008-09-03T16:00:00Z,28.4460,-96.3961,0.0,2.9,335.0,3.4,'11111222,11111222,11111222' 
TCOON,ioos:station:TCOON:057:1,2008-09-03T17:00:00Z,28.4460,-96.3961,0.0,2.4,359.0,2.6,'11111222,11111222,11111222' 
TCOON,ioos:station:TCOON:057:1,2008-09-03T18:00:00Z,28.4460,-96.3961,0.0,2.3,79.0,2.9,'11111222,11111222,11111222' 
TCOON,ioos:station:TCOON:057:1,2008-09-03T19:00:00Z,28.4460,-96.3961,0.0,2.4,167.0,3.6,'11111222,11111222,11111222' 
TCOON,ioos:station:TCOON:057:1,2008-09-03T20:00:00Z,28.4460,-96.3961,0.0,5.1,166.0,5.9,'11111222,11111222,11111222' 
TCOON,ioos:station:TCOON:057:1,2008-09-04T08:00:00Z,28.4460,-96.3961,0.0,6.9,10.0,7.5,'11111222,11111222,11111222' 
TCOON,ioos:station:TCOON:057:1,2008-09-04T09:00:00Z,28.4460,-96.3961,0.0,6.7,12.0,7.3,'11111222,11111222,11111222' 
TCOON,ioos:station:TCOON:057:1,2008-09-04T10:00:00Z,28.4460,-96.3961,0.0,6.8,15.0,7.5,'11111222,11111222,11111222' 
TCOON,ioos:station:TCOON:057:1,2008-09-04T11:00:00Z,28.4460,-96.3961,0.0,7.3,2.0,8.5,'11111222,11111222,11111222' 
TCOON,ioos:station:TCOON:057:1,2008-09-04T12:00:00Z,28.4460,-96.3961,0.0,8.0,7.0,9.1,'11111222,11111222,11111222' 
TCOON,ioos:station:TCOON:057:1,2008-09-04T15:00:00Z,28.4460,-96.3961,0.0,7.3,3.0,8.7,'11111222,11111222,11111222' 
TCOON,ioos:station:TCOON:057:1,2008-09-04T16:00:00Z,28.4460,-96.3961,0.0,5.2,2.0,6.3,'11111222,11111222,11111222' 
TCOON,ioos:station:TCOON:057:1,2008-09-04T17:00:00Z,28.4460,-96.3961,0.0,4.6,9.0,5.4,'11111222,11111222,11111222' 
TCOON,ioos:station:TCOON:057:1,2008-09-04T18:00:00Z,28.4460,-96.3961,0.0,4.6,2.0,5.4,'11111222,11111222,11111222' 
TCOON,ioos:station:TCOON:057:1,2008-09-04T19:00:00Z,28.4460,-96.3961,0.0,2.5,20.0,3.1,'11111222,11111222,11111222' 
TCOON,ioos:station:TCOON:057:1,2008-09-04T20:00:00Z,28.4460,-96.3961,0.0,1.4,69.0,1.9,'11111222,11111222,11111222' 
TCOON,ioos:station:TCOON:057:1,2008-09-05T03:00:00Z,28.4460,-96.3961,0.0,2.5,177.0,2.8,'11111222,11111222,11111222' 
TCOON,ioos:station:TCOON:057:1,2008-09-05T04:00:00Z,28.4460,-96.3961,0.0,3.0,166.0,3.3,'11111222,11111222,11111222' 
TCOON,ioos:station:TCOON:057:1,2008-09-05T05:00:00Z,28.4460,-96.3961,0.0,1.6,168.0,1.9,'11111222,11111222,11111222' 
TCOON,ioos:station:TCOON:057:1,2008-09-05T06:00:00Z,28.4460,-96.3961,0.0,0.9,143.0,1.2,'11111222,11111222,11111222' 
TCOON,ioos:station:TCOON:057:1,2008-09-05T07:00:00Z,28.4460,-96.3961,0.0,2.4,122.0,2.7,'11111222,11111222,11111222' 
TCOON,ioos:station:TCOON:057:1,2008-09-05T08:00:00Z,28.4460,-96.3961,0.0,2.1,116.0,2.4,'11111222,11111222,11111222' 
TCOON,ioos:station:TCOON:057:1,2008-09-05T09:00:00Z,28.4460,-96.3961,0.0,2.7,111.0,3.0,'11111222,11111222,11111222' 
TCOON,ioos:station:TCOON:057:1,2008-09-05T10:00:00Z,28.4460,-96.3961,0.0,0.5,159.0,0.8,'11111222,11111222,11111222' 
TCOON,ioos:station:TCOON:057:1,2008-09-05T11:00:00Z,28.4460,-96.3961,0.0,1.3,48.0,1.8,'11111222,11111222,11111222' 
TCOON,ioos:station:TCOON:057:1,2008-09-05T12:00:00Z,28.4460,-96.3961,0.0,3.0,44.0,3.3,'11111222,11111222,11111222' 
TCOON,ioos:station:TCOON:057:1,2008-09-05T13:00:00Z,28.4460,-96.3961,0.0,5.2,39.0,5.6,'11111222,11111222,11111222' 
TCOON,ioos:station:TCOON:057:1,2008-09-05T14:00:00Z,28.4460,-96.3961,0.0,7.6,36.0,8.4,'11111222,11111222,11111222' 
TCOON,ioos:station:TCOON:057:1,2008-09-05T15:00:00Z,28.4460,-96.3961,0.0,5.4,44.0,6.3,'11111222,11111222,11111222' 
TCOON,ioos:station:TCOON:057:1,2008-09-05T16:00:00Z,28.4460,-96.3961,0.0,4.9,36.0,5.8,'11111222,11111222,11111222' 
TCOON,ioos:station:TCOON:057:1,2008-09-05T17:00:00Z,28.4460,-96.3961,0.0,3.9,42.0,4.6,'11111222,11111222,11111222' 
TCOON,ioos:station:TCOON:057:1,2008-09-05T18:00:00Z,28.4460,-96.3961,0.0,2.7,71.0,3.1,'11111222,11111222,11111222' 
TCOON,ioos:station:TCOON:057:1,2008-09-05T19:00:00Z,28.4460,-96.3961,0.0,1.9,101.0,2.4,'11111222,11111222,11111222' 
TCOON,ioos:station:TCOON:057:1,2008-09-05T20:00:00Z,28.4460,-96.3961,0.0,3.4,146.0,4.1,'11111222,11111222,11111222' 
TCOON,ioos:station:TCOON:057:1,2008-09-05T21:00:00Z,28.4460,-96.3961,0.0,4.4,142.0,5.0,'11111222,11111222,11111222' 
TCOON,ioos:station:TCOON:057:1,2008-09-05T22:00:00Z,28.4460,-96.3961,0.0,5.1,130.0,5.9,'11111222,11111222,11111222' 
TCOON,ioos:station:TCOON:057:1,2008-09-05T23:00:00Z,28.4460,-96.3961,0.0,6.3,113.0,7.2,'11111222,11111222,11111222' 
TCOON,ioos:station:TCOON:057:1,2008-09-06T00:00:00Z,28.4460,-96.3961,0.0,5.5,119.0,6.8,'11111222,11111222,11111222' 
TCOON,ioos:station:TCOON:057:1,2008-09-06T01:00:00Z,28.4460,-96.3961,0.0,6.7,119.0,7.5,'11111222,11111222,11111222' 
TCOON,ioos:station:TCOON:057:1,2008-09-06T02:00:00Z,28.4460,-96.3961,0.0,8.1,109.0,9.1,'11111222,11111222,11111222' 
TCOON,ioos:station:TCOON:057:1,2008-09-06T03:00:00Z,28.4460,-96.3961,0.0,7.2,108.0,8.2,'11111222,11111222,11111222' 
TCOON,ioos:station:TCOON:057:1,2008-09-06T04:00:00Z,28.4460,-96.3961,0.0,6.3,116.0,7.4,'11111222,11111222,11111222' 
TCOON,ioos:station:TCOON:057:1,2008-09-06T05:00:00Z,28.4460,-96.3961,0.0,5.5,113.0,6.4,'11111222,11111222,11111222' 
TCOON,ioos:station:TCOON:057:1,2008-09-06T06:00:00Z,28.4460,-96.3961,0.0,4.3,103.0,4.9,'11111222,11111222,11111222' 
TCOON,ioos:station:TCOON:057:1,2008-09-06T07:00:00Z,28.4460,-96.3961,0.0,4.5,94.0,5.2,'11111222,11111222,11111222' 
TCOON,ioos:station:TCOON:057:1,2008-09-06T08:00:00Z,28.4460,-96.3961,0.0,4.4,77.0,5.2,'11111222,11111222,11111222' 
TCOON,ioos:station:TCOON:057:1,2008-09-06T09:00:00Z,28.4460,-96.3961,0.0,5.1,89.0,5.8,'11111222,11111222,11111222' 
TCOON,ioos:station:TCOON:057:1,2008-09-06T10:00:00Z,28.4460,-96.3961,0.0,5.4,90.0,6.1,'11111222,11111222,11111222' 
TCOON,ioos:station:TCOON:057:1,2008-09-06T11:00:00Z,28.4460,-96.3961,0.0,4.9,97.0,5.5,'11111222,11111222,11111222' 
TCOON,ioos:station:TCOON:057:1,2008-09-06T12:00:00Z,28.4460,-96.3961,0.0,6.6,46.0,7.6,'11111222,11111222,11111222' 
TCOON,ioos:station:TCOON:057:1,2008-09-06T13:00:00Z,28.4460,-96.3961,0.0,7.0,37.0,7.8,'11111222,11111222,11111222' 
TCOON,ioos:station:TCOON:057:1,2008-09-06T14:00:00Z,28.4460,-96.3961,0.0,7.1,39.0,8.0,'11111222,11111222,11111222' 
TCOON,ioos:station:TCOON:057:1,2008-09-06T15:00:00Z,28.4460,-96.3961,0.0,6.7,41.0,8.0,'11111222,11111222,11111222' 
TCOON,ioos:station:TCOON:057:1,2008-09-06T16:00:00Z,28.4460,-96.3961,0.0,5.7,48.0,6.5,'11111222,11111222,11111222' 
TCOON,ioos:station:TCOON:057:1,2008-09-06T17:00:00Z,28.4460,-96.3961,0.0,5.3,59.0,6.1,'11111222,11111222,11111222' 
TCOON,ioos:station:TCOON:057:1,2008-09-06T18:00:00Z,28.4460,-96.3961,0.0,3.0,64.0,3.5,'11111222,11111222,11111222' 
TCOON,ioos:station:TCOON:057:1,2008-09-06T19:00:00Z,28.4460,-96.3961,0.0,2.2,77.0,2.8,'11111222,11111222,11111222' 
TCOON,ioos:station:TCOON:057:1,2008-09-06T20:00:00Z,28.4460,-96.3961,0.0,3.3,129.0,3.6,'11111222,11111222,11111222' 
TCOON,ioos:station:TCOON:057:1,2008-09-06T21:00:00Z,28.4460,-96.3961,0.0,3.9,122.0,4.6,'11111222,11111222,11111222' 
TCOON,ioos:station:TCOON:057:1,2008-09-06T22:00:00Z,28.4460,-96.3961,0.0,4.5,130.0,4.9,'11111222,11111222,11111222' 
TCOON,ioos:station:TCOON:057:1,2008-09-06T23:00:00Z,28.4460,-96.3961,0.0,4.9,120.0,5.9,'11111222,11111222,11111222' 
TCOON,ioos:station:TCOON:057:1,2008-09-07T00:00:00Z,28.4460,-96.3961,0.0,5.5,111.0,6.2,'11111222,11111222,11111222' 
TCOON,ioos:station:TCOON:057:1,2008-09-07T01:00:00Z,28.4460,-96.3961,0.0,5.8,106.0,6.6,'11111222,11111222,11111222' 
TCOON,ioos:station:TCOON:057:1,2008-09-07T02:00:00Z,28.4460,-96.3961,0.0,7.8,97.0,8.6,'11111222,11111222,11111222' 
TCOON,ioos:station:TCOON:057:1,2008-09-07T03:00:00Z,28.4460,-96.3961,0.0,5.7,95.0,6.6,'11111222,11111222,11111222' 
TCOON,ioos:station:TCOON:057:1,2008-09-07T04:00:00Z,28.4460,-96.3961,0.0,6.6,97.0,7.6,'11111222,11111222,11111222' 
TCOON,ioos:station:TCOON:057:1,2008-09-07T05:00:00Z,28.4460,-96.3961,0.0,6.1,97.0,7.1,'11111222,11111222,11111222' 
TCOON,ioos:station:TCOON:057:1,2008-09-07T06:00:00Z,28.4460,-96.3961,0.0,6.7,101.0,7.5,'11111222,11111222,11111222' 
TCOON,ioos:station:TCOON:057:1,2008-09-07T07:00:00Z,28.4460,-96.3961,0.0,6.7,108.0,7.4,'11111222,11111222,11111222' 
TCOON,ioos:station:TCOON:057:1,2008-09-07T08:00:00Z,28.4460,-96.3961,0.0,5.7,96.0,7.1,'11111222,11111222,11111222' 
TCOON,ioos:station:TCOON:057:1,2008-09-07T09:00:00Z,28.4460,-96.3961,0.0,5.1,90.0,5.6,'11111222,11111222,11111222' 
TCOON,ioos:station:TCOON:057:1,2008-09-07T10:00:00Z,28.4460,-96.3961,0.0,3.6,93.0,4.2,'11111222,11111222,11111222' 
TCOON,ioos:station:TCOON:057:1,2008-09-07T11:00:00Z,28.4460,-96.3961,0.0,4.2,90.0,5.1,'11111222,11111222,11111222' 
TCOON,ioos:station:TCOON:057:1,2008-09-07T12:00:00Z,28.4460,-96.3961,0.0,4.3,75.0,4.7,'11111222,11111222,11111222' 
TCOON,ioos:station:TCOON:057:1,2008-09-07T13:00:00Z,28.4460,-96.3961,0.0,3.8,63.0,4.4,'11111222,11111222,11111222' 
TCOON,ioos:station:TCOON:057:1,2008-09-07T14:00:00Z,28.4460,-96.3961,0.0,5.2,52.0,5.9,'11111222,11111222,11111222' 
TCOON,ioos:station:TCOON:057:1,2008-09-07T15:00:00Z,28.4460,-96.3961,0.0,5.5,58.0,6.5,'11111222,11111222,11111222' 
TCOON,ioos:station:TCOON:057:1,2008-09-07T16:00:00Z,28.4460,-96.3961,0.0,5.8,61.0,6.5,'11111222,11111222,11111222' 
TCOON,ioos:station:TCOON:057:1,2008-09-07T17:00:00Z,28.4460,-96.3961,0.0,6.1,60.0,7.5,'11111222,11111222,11111222' 
TCOON,ioos:station:TCOON:057:1,2008-09-07T18:00:00Z,28.4460,-96.3961,0.0,6.2,70.0,6.8,'11111222,11111222,11111222' 
TCOON,ioos:station:TCOON:057:1,2008-09-07T19:00:00Z,28.4460,-96.3961,0.0,7.8,83.0,9.0,'11111222,11111222,11111222' 
TCOON,ioos:station:TCOON:057:1,2008-09-07T20:00:00Z,28.4460,-96.3961,0.0,8.9,88.0,10.1,'11111222,11111222,11111222' 
TCOON,ioos:station:TCOON:057:1,2008-09-07T21:00:00Z,28.4460,-96.3961,0.0,9.0,84.0,10.7,'11111222,11111222,11111222' 
TCOON,ioos:station:TCOON:057:1,2008-09-07T22:00:00Z,28.4460,-96.3961,0.0,10.0,94.0,11.1,'11111222,11111222,11111222' 
TCOON,ioos:station:TCOON:057:1,2008-09-07T23:00:00Z,28.4460,-96.3961,0.0,9.1,97.0,11.0,'11111222,11111222,11111222' 
TCOON,ioos:station:TCOON:057:1,2008-09-08T00:00:00Z,28.4460,-96.3961,0.0,8.5,103.0,9.5,'11111222,11111222,11111222' 
TCOON,ioos:station:TCOON:057:1,2008-09-08T01:00:00Z,28.4460,-96.3961,0.0,7.7,95.0,8.6,'11111222,11111222,11111222' 
TCOON,ioos:station:TCOON:057:1,2008-09-08T02:00:00Z,28.4460,-96.3961,0.0,8.0,101.0,9.1,'11111222,11111222,11111222' 
TCOON,ioos:station:TCOON:057:1,2008-09-08T03:00:00Z,28.4460,-96.3961,0.0,7.6,103.0,8.6,'11111222,11111222,11111222' 
TCOON,ioos:station:TCOON:057:1,2008-09-08T04:00:00Z,28.4460,-96.3961,0.0,7.9,98.0,9.0,'11111222,11111222,11111222' 
TCOON,ioos:station:TCOON:057:1,2008-09-08T05:00:00Z,28.4460,-96.3961,0.0,8.2,109.0,9.7,'11111222,11111222,11111222' 
TCOON,ioos:station:TCOON:057:1,2008-09-08T06:00:00Z,28.4460,-96.3961,0.0,7.9,128.0,8.7,'11111222,11111222,11111222' 
TCOON,ioos:station:TCOON:057:1,2008-09-08T07:00:00Z,28.4460,-96.3961,0.0,5.6,127.0,6.8,'11111222,11111222,11111222' 
TCOON,ioos:station:TCOON:057:1,2008-09-08T08:00:00Z,28.4460,-96.3961,0.0,5.4,110.0,5.9,'11111222,11111222,11111222' 
TCOON,ioos:station:TCOON:057:1,2008-09-08T09:00:00Z,28.4460,-96.3961,0.0,4.9,110.0,5.7,'11111222,11111222,11111222' 
TCOON,ioos:station:TCOON:057:1,2008-09-08T10:00:00Z,28.4460,-96.3961,0.0,4.3,102.0,4.9,'11111222,11111222,11111222' 
TCOON,ioos:station:TCOON:057:1,2008-09-08T11:00:00Z,28.4460,-96.3961,0.0,3.8,129.0,4.1,'11111222,11111222,11111222' 
TCOON,ioos:station:TCOON:057:1,2008-09-08T12:00:00Z,28.4460,-96.3961,0.0,4.7,122.0,5.1,'11111222,11111222,11111222' 
TCOON,ioos:station:TCOON:057:1,2008-09-08T13:00:00Z,28.4460,-96.3961,0.0,4.1,109.0,4.8,'11111222,11111222,11111222' 
TCOON,ioos:station:TCOON:057:1,2008-09-08T14:00:00Z,28.4460,-96.3961,0.0,5.3,121.0,6.1,'11111222,11111222,11111222' 
TCOON,ioos:station:TCOON:057:1,2008-09-08T15:00:00Z,28.4460,-96.3961,0.0,5.6,128.0,6.4,'11111222,11111222,11111222' 
TCOON,ioos:station:TCOON:057:1,2008-09-08T16:00:00Z,28.4460,-96.3961,0.0,5.2,103.0,6.2,'11111222,11111222,11111222' 
TCOON,ioos:station:TCOON:057:1,2008-09-08T17:00:00Z,28.4460,-96.3961,0.0,5.1,99.0,5.6,'11111222,11111222,11111222' 
TCOON,ioos:station:TCOON:057:1,2008-09-08T18:00:00Z,28.4460,-96.3961,0.0,6.9,122.0,7.9,'11111222,11111222,11111222' 
TCOON,ioos:station:TCOON:057:1,2008-09-08T19:00:00Z,28.4460,-96.3961,0.0,5.1,122.0,6.4,'11111222,11111222,11111222' 
TCOON,ioos:station:TCOON:057:1,2008-09-08T20:00:00Z,28.4460,-96.3961,0.0,5.5,122.0,6.1,'11111222,11111222,11111222' 
TCOON,ioos:station:TCOON:057:1,2008-09-08T21:00:00Z,28.4460,-96.3961,0.0,6.3,114.0,7.5,'11111222,11111222,11111222' 
TCOON,ioos:station:TCOON:057:1,2008-09-08T22:00:00Z,28.4460,-96.3961,0.0,7.3,112.0,8.4,'11111222,11111222,11111222' 
TCOON,ioos:station:TCOON:057:1,2008-09-08T23:00:00Z,28.4460,-96.3961,0.0,7.3,104.0,8.3,'11111222,11111222,11111222' 
TCOON,ioos:station:TCOON:057:1,2008-09-09T00:00:00Z,28.4460,-96.3961,0.0,7.1,154.0,9.1,'11111222,11111222,11111222' 
TCOON,ioos:station:TCOON:057:1,2008-09-09T01:00:00Z,28.4460,-96.3961,0.0,6.2,159.0,7.1,'11111222,11111222,11111222' 
TCOON,ioos:station:TCOON:057:1,2008-09-09T02:00:00Z,28.4460,-96.3961,0.0,4.4,144.0,4.9,'11111222,11111222,11111222' 
TCOON,ioos:station:TCOON:057:1,2008-09-09T03:00:00Z,28.4460,-96.3961,0.0,3.1,137.0,3.6,'11111222,11111222,11111222' 
TCOON,ioos:station:TCOON:057:1,2008-09-09T04:00:00Z,28.4460,-96.3961,0.0,3.1,81.0,3.5,'11111222,11111222,11111222' 
TCOON,ioos:station:TCOON:057:1,2008-09-09T05:00:00Z,28.4460,-96.3961,0.0,6.3,86.0,7.0,'11111222,11111222,11111222' 
TCOON,ioos:station:TCOON:057:1,2008-09-09T06:00:00Z,28.4460,-96.3961,0.0,6.9,109.0,8.0,'11111222,11111222,11111222' 
TCOON,ioos:station:TCOON:057:1,2008-09-09T07:00:00Z,28.4460,-96.3961,0.0,6.3,129.0,7.0,'11111222,11111222,11111222' 
TCOON,ioos:station:TCOON:057:1,2008-09-09T08:00:00Z,28.4460,-96.3961,0.0,5.6,131.0,6.4,'11111222,11111222,11111222' 
TCOON,ioos:station:TCOON:057:1,2008-09-09T09:00:00Z,28.4460,-96.3961,0.0,5.1,117.0,5.6,'11111222,11111222,11111222' 
TCOON,ioos:station:TCOON:057:1,2008-09-09T10:00:00Z,28.4460,-96.3961,0.0,4.5,104.0,5.4,'11111222,11111222,11111222' 
TCOON,ioos:station:TCOON:057:1,2008-09-09T11:00:00Z,28.4460,-96.3961,0.0,4.4,101.0,5.4,'11111222,11111222,11111222' 
TCOON,ioos:station:TCOON:057:1,2008-09-09T12:00:00Z,28.4460,-96.3961,0.0,3.2,98.0,3.6,'11111222,11111222,11111222' 
TCOON,ioos:station:TCOON:057:1,2008-09-09T13:00:00Z,28.4460,-96.3961,0.0,0.8,280.0,1.6,'11111222,11111222,11111222' 
TCOON,ioos:station:TCOON:057:1,2008-09-09T14:00:00Z,28.4460,-96.3961,0.0,4.6,91.0,5.2,'11111222,11111222,11111222' 
TCOON,ioos:station:TCOON:057:1,2008-09-09T15:00:00Z,28.4460,-96.3961,0.0,3.9,94.0,4.3,'11111222,11111222,11111222' 
TCOON,ioos:station:TCOON:057:1,2008-09-09T16:00:00Z,28.4460,-96.3961,0.0,3.8,46.0,4.2,'11111222,11111222,11111222' 
TCOON,ioos:station:TCOON:057:1,2008-09-09T17:00:00Z,28.4460,-96.3961,0.0,3.5,79.0,4.1,'11111222,11111222,11111222' 
TCOON,ioos:station:TCOON:057:1,2008-09-09T18:00:00Z,28.4460,-96.3961,0.0,3.9,88.0,4.3,'11111222,11111222,11111222' 
TCOON,ioos:station:TCOON:057:1,2008-09-09T19:00:00Z,28.4460,-96.3961,0.0,4.0,109.0,5.1,'11111222,11111222,11111222' 
TCOON,ioos:station:TCOON:057:1,2008-09-09T20:00:00Z,28.4460,-96.3961,0.0,5.2,108.0,5.9,'11111222,11111222,11111222' 
TCOON,ioos:station:TCOON:057:1,2008-09-09T21:00:00Z,28.4460,-96.3961,0.0,5.9,114.0,6.9,'11111222,11111222,11111222' 
TCOON,ioos:station:TCOON:057:1,2008-09-09T22:00:00Z,28.4460,-96.3961,0.0,6.5,121.0,7.5,'11111222,11111222,11111222' 
TCOON,ioos:station:TCOON:057:1,2008-09-09T23:00:00Z,28.4460,-96.3961,0.0,6.6,104.0,7.6,'11111222,11111222,11111222' 
TCOON,ioos:station:TCOON:057:1,2008-09-10T00:00:00Z,28.4460,-96.3961,0.0,7.5,102.0,8.5,'11111222,11111222,11111222' 
TCOON,ioos:station:TCOON:057:1,2008-09-10T01:00:00Z,28.4460,-96.3961,0.0,6.5,103.0,7.5,'11111222,11111222,11111222' 
TCOON,ioos:station:TCOON:057:1,2008-09-10T02:00:00Z,28.4460,-96.3961,0.0,5.8,102.0,6.7,'11111222,11111222,11111222' 
TCOON,ioos:station:TCOON:057:1,2008-09-10T03:00:00Z,28.4460,-96.3961,0.0,6.0,97.0,7.2,'11111222,11111222,11111222' 
TCOON,ioos:station:TCOON:057:1,2008-09-10T04:00:00Z,28.4460,-96.3961,0.0,5.6,95.0,6.5,'11111222,11111222,11111222' 
TCOON,ioos:station:TCOON:057:1,2008-09-10T05:00:00Z,28.4460,-96.3961,0.0,5.8,99.0,6.5,'11111222,11111222,11111222' 
TCOON,ioos:station:TCOON:057:1,2008-09-10T06:00:00Z,28.4460,-96.3961,0.0,5.5,101.0,6.3,'11111222,11111222,11111222' 
TCOON,ioos:station:TCOON:057:1,2008-09-10T07:00:00Z,28.4460,-96.3961,0.0,5.8,108.0,6.4,'11111222,11111222,11111222' 